Location: Bailen
(14.1842°N, 120.7958°E)
Time: 05:06:00
(UTC+00:00)

IRS-1D - Visible Passes

Search period start: 21 April 2026 00:00
Search period end: 01 May 2026 00:00
Orbit: 736 x 811 km, 98.8° (Epoch: 20 April)

Date Brightness Start Highest point End Pass type
(mag) Time Alt. Az. Time Alt. Az. Time Alt. Az.
21 Apr 5.9 20:11:20 10° NE 20:15:25 23° E 20:19:31 10° SSE visible
22 Apr 3.7 21:14:57 10° N 21:20:04 61° WNW 21:25:16 10° SSW visible
23 Apr 4.4 20:40:43 10° NNE 20:45:47 52° ESE 20:50:55 10° S visible
24 Apr 6.0 20:07:36 10° NE 20:11:27 21° E 20:15:19 10° SSE visible
25 Apr 3.6 21:10:55 10° N 21:16:06 69° WNW 21:21:22 10° SSW visible
26 Apr 4.7 20:36:48 10° NNE 20:41:49 46° ESE 20:46:53 10° S visible
27 Apr 6.2 20:03:54 10° ENE 20:07:29 18° E 20:11:04 10° SE visible
28 Apr 3.6 21:06:54 10° N 21:12:09 78° WNW 21:17:27 10° SSW visible
29 Apr 4.9 20:32:55 10° NNE 20:37:51 41° E 20:42:50 10° S visible
30 Apr 6.3 20:00:16 10° ENE 20:03:30 16° E 20:06:44 10° SE visible
